GW6539 Weather Reports


time (UTC)temp
F
wind
direction
speed
knots
gust
knots
rain 1hr
in
rain 24hr
in
rain mn
in
humidity
%
barometer
mb
20260506051005 88 72 9.6 13.0 0.00 0.02 0.02 71 1009.8
20260506050503 87 44 7.8 11.3 0.00 0.02 0.02 71 1009.4
20260506044953 87 59 8.7 13.0 0.00 0.02 0.02 72 1009.4
20260506044452 86 75 12.2 13.9 0.00 0.02 0.02 74 1009.8
20260506043948 86 90 9.6 14.8 0.00 0.02 0.02 73 1010.1
20260506043445 87 79 9.6 11.3 0.00 0.02 0.02 71 1010.1
20260506042943 87 77 13.0 15.6 0.00 0.02 0.02 70 1009.8
20260506042442 88 93 7.0 13.0 0.00 0.02 0.02 70 1010.1
20260506041940 87 73 10.4 13.0 0.00 0.02 0.02 71 1010.1
20260506041437 87 74 8.7 13.0 0.00 0.02 0.02 71 1010.1
20260506040935 86 64 8.7 12.2 0.00 0.02 0.02 73 1010.5
20260506040432 86 70 7.8 11.3 0.00 0.02 0.02 74 1010.5
20260506035928 86 62 8.7 10.4 0.00 0.02 0.02 76 1010.5
20260506035426 85 122 5.2 7.0 0.00 0.02 0.02 79 1010.5
20260506034922 86 109 4.3 7.0 0.00 0.02 0.02 78 1010.8
20260506034419 85 107 6.1 8.7 0.00 0.02 0.02 80 1010.8
20260506033916 85 125 7.8 11.3 0.00 0.02 0.02 80 1011.1
20260506033414 85 115 3.5 6.1 0.00 0.02 0.02 79 1011.1
20260506032910 85 119 5.2 10.4 0.00 0.02 0.02 77 1011.1
20260506032407 86 93 7.8 10.4 0.00 0.02 0.02 74 1011.1
20260506031904 87 85 7.8 11.3 0.00 0.02 0.02 73 1011.1
20260506031401 86 90 8.7 13.9 0.00 0.02 0.02 73 1011.1
20260506030859 87 52 9.6 14.8 0.00 0.02 0.02 72 1011.1
20260506030357 87 55 10.4 13.0 0.00 0.02 0.02 71 1011.1
20260506025853 87 63 12.2 16.5 0.00 0.02 0.02 70 1011.1
20260506025350 87 46 7.8 11.3 0.00 0.02 0.02 72 1011.5
20260506024847 87 47 6.1 9.6 0.00 0.02 0.02 72 1011.1
20260506024344 87 58 10.4 15.6 0.00 0.02 0.02 72 1011.1
20260506023840 88 76 9.6 12.2 0.00 0.02 0.02 71 1011.1
20260506023337 87 58 12.2 14.8 0.00 0.02 0.02 71 1011.5
20260506022833 88 57 9.6 11.3 0.00 0.02 0.02 69 1011.1
20260506022331 88 76 12.2 14.8 0.00 0.02 0.02 70 1011.5
20260506021829 87 97 8.7 12.2 0.00 0.02 0.02 71 1011.5
20260506021327 87 86 10.4 13.0 0.00 0.02 0.02 71 1011.5
20260506020823 87 113 7.0 8.7 0.00 0.02 0.02 71 1011.5
20260506020321 87 77 10.4 13.9 0.00 0.02 0.02 71 1011.5
20260506015819 87 83 7.8 13.9 0.00 0.02 0.02 71 1011.5
20260506015316 87 104 10.4 13.9 0.00 0.02 0.02 71 1011.8
20260506014812 87 104 7.8 9.6 0.00 0.02 0.02 73 1011.8
20260506014309 86 96 8.7 11.3 0.00 0.02 0.02 74 1011.8
20260506013805 86 91 9.6 13.0 0.00 0.02 0.02 72 1011.8
20260506013303 87 100 9.6 13.0 0.00 0.02 0.02 73 1011.8
20260506012759 86 88 10.4 13.0 0.00 0.02 0.02 73 1011.8
20260506012256 87 80 11.3 13.0 0.00 0.02 0.02 71 1011.8
20260506011753 86 77 10.4 13.0 0.00 0.02 0.02 72 1012.2
20260506011249 86 86 10.4 13.9 0.00 0.02 0.02 74 1012.2
20260506010748 86 71 10.4 13.0 0.00 0.02 0.02 74 1012.2
20260506010245 87 79 9.6 13.0 0.00 0.02 0.02 73 1011.8
20260506005742 86 89 7.0 9.6 0.00 0.02 0.02 74 1012.5
20260506005239 87 96 9.6 13.9 0.00 0.02 0.02 71 1012.2
20260506004734 87 68 8.7 11.3 0.00 0.02 0.02 73 1012.5
20260506004232 85 79 11.3 13.9 0.00 0.02 0.02 76 1012.5
20260506003728 85 93 9.6 13.0 0.00 0.02 0.02 77 1012.5
20260506003225 86 80 12.2 13.9 0.00 0.02 0.02 75 1012.5
20260506002721 86 73 10.4 13.0 0.00 0.02 0.02 75 1012.5
20260506002217 85 59 11.3 14.8 0.00 0.02 0.02 76 1012.5
20260506001713 85 68 11.3 13.9 0.00 0.02 0.02 76 1012.5
20260506001211 85 74 12.2 13.9 0.00 0.02 0.02 75 1012.5
20260506000707 85 72 11.3 13.9 0.00 0.02 0.02 76 1012.8
20260506000205 85 88 6.1 9.6 0.00 0.02 0.02 78 1012.5
20260505235703 84 66 8.7 10.4 0.00 0.02 0.02 79 1012.8
20260505235200 85 102 9.6 13.0 0.00 0.02 0.02 78 1012.8
20260505234657 86 89 8.7 11.3 0.00 0.02 0.02 76 1012.8
20260505234154 85 100 7.0 8.7 0.00 0.02 0.02 77 1012.8
20260505233650 85 101 9.6 14.8 0.00 0.02 0.02 77 1012.8
20260505233148 85 109 7.8 9.6 0.00 0.02 0.02 77 1012.8
20260505232646 85 73 10.4 13.9 0.00 0.02 0.02 76 1012.8
20260505232143 85 63 11.3 14.8 0.00 0.02 0.02 78 1012.8
20260505231639 84 79 10.4 12.2 0.00 0.02 0.02 79 1012.8
20260505231139 84 78 7.8 9.6 0.00 0.02 0.02 78 1012.8
20260505230636 84 55 8.7 12.2 0.00 0.02 0.02 79 1012.8
20260505230132 84 88 7.0 9.6 0.00 0.02 0.02 80 1012.8
20260505225628 84 74 8.7 13.0 0.00 0.02 0.02 79 1012.5
20260505225125 84 91 8.7 11.3 0.00 0.02 0.02 79 1012.5
20260505224622 85 71 11.3 13.9 0.00 0.02 0.02 78 1012.5
20260505224119 85 94 9.6 12.2 0.00 0.02 0.02 77 1012.5
20260505223616 85 98 10.4 14.8 0.00 0.02 0.02 77 1012.5
20260505223112 85 73 9.6 11.3 0.00 0.02 0.02 77 1012.2
20260505222609 85 89 7.8 11.3 0.00 0.02 0.02 77 1012.2
20260505222105 84 91 10.4 13.0 0.00 0.02 0.02 77 1012.2
20260505221602 84 90 8.7 11.3 0.00 0.02 0.02 78 1012.2
20260505221058 84 80 7.0 9.6 0.00 0.02 0.02 79 1012.2
20260505220556 83 100 7.8 11.3 0.00 0.02 0.02 82 1012.2
20260505220054 82 90 7.0 9.6 0.00 0.02 0.02 83 1012.2
20260505215552 82 87 6.1 7.8 0.00 0.02 0.02 83 1012.2
20260505215049 82 83 7.0 8.7 0.00 0.02 0.02 83 1012.2
20260505214547 82 77 7.0 8.7 0.00 0.02 0.02 83 1012.2
20260505214044 83 97 6.1 9.6 0.00 0.02 0.02 83 1011.8
20260505213542 82 80 5.2 7.8 0.00 0.02 0.02 84 1012.2
20260505213037 82 76 5.2 7.0 0.00 0.02 0.02 85 1011.8
20260505212534 81 78 6.1 7.8 0.00 0.02 0.02 86 1011.8
20260505212032 81 70 5.2 6.1 0.00 0.02 0.02 86 1011.8
20260505211529 81 68 5.2 7.0 0.00 0.02 0.02 86 1011.8
20260505211025 81 78 6.1 7.8 0.00 0.02 0.02 86 1011.8
20260505210522 81 62 3.5 4.3 0.00 0.02 0.02 86 1011.8
20260505210019 81 63 4.3 5.2 0.00 0.02 0.02 86 1011.8
20260505205517 81 91 3.5 5.2 0.00 0.02 0.02 87 1011.8
20260505205014 80 60 4.3 6.1 0.00 0.02 0.02 87 1011.5
20260505204512 80 83 3.5 4.3 0.00 0.02 0.02 87 1011.8
20260505204009 80 65 4.3 6.1 0.00 0.02 0.02 87 1011.8
20260505203505 80 70 4.3 5.2 0.00 0.02 0.02 86 1011.5
20260505203001 80 83 4.3 5.2 0.00 0.02 0.02 87 1011.5
20260505202458 80 78 4.3 5.2 0.00 0.02 0.02 87 1011.5
20260505201954 80 87 4.3 5.2 0.00 0.02 0.02 87 1011.5
20260505201451 80 108 2.6 3.5 0.00 0.02 0.02 87 1011.5
20260505200949 80 93 2.6 2.6 0.00 0.02 0.02 87 1011.5
20260505200447 80 80 2.6 4.3 0.00 0.02 0.02 87 1011.5
20260505195942 80 103 0.9 1.7 0.00 0.02 0.02 87 1011.1
20260505195439 80 69 2.6 4.3 0.00 0.02 0.02 86 1011.1
20260505194937 80 76 2.6 3.5 0.00 0.02 0.02 86 1011.1
20260505194434 80 80 1.7 2.6 0.00 0.02 0.02 86 1011.1
20260505193934 80 58 3.5 4.3 0.00 0.02 0.02 86 1011.1
20260505193432 80 93 3.5 5.2 0.00 0.02 0.02 86 1011.1
20260505192929 80 72 3.5 3.5 0.00 0.02 0.02 86 1011.1
20260505192428 80 79 3.5 4.3 0.00 0.02 0.02 85 1010.8
20260505191925 80 82 3.5 4.3 0.00 0.02 0.02 85 1011.1
20260505191423 81 72 4.3 5.2 0.00 0.02 0.02 85 1010.8
20260505190920 81 69 5.2 6.1 0.00 0.02 0.02 85 1010.8
20260505190415 81 71 5.2 6.1 0.00 0.02 0.02 84 1010.8
20260505185910 81 78 6.1 7.8 0.00 0.02 0.02 85 1010.8
20260505185408 81 70 5.2 7.0 0.00 0.02 0.02 84 1010.8
20260505184904 81 76 5.2 7.8 0.00 0.02 0.02 84 1010.8
20260505184401 81 73 6.1 7.8 0.00 0.02 0.02 83 1010.5
20260505183858 81 76 7.8 11.3 0.00 0.02 0.02 84 1010.8
20260505183355 81 79 6.1 8.7 0.00 0.02 0.02 84 1010.8
20260505182851 81 77 5.2 6.1 0.00 0.02 0.02 85 1010.8
20260505182348 81 83 4.3 6.1 0.00 0.02 0.02 85 1010.8
20260505181845 81 81 4.3 5.2 0.00 0.02 0.02 85 1010.8
20260505181342 80 96 4.3 6.1 0.00 0.02 0.02 86 1010.8
20260505180839 80 78 3.5 4.3 0.00 0.02 0.02 86 1010.8
20260505180335 80 56 2.6 3.5 0.00 0.02 0.02 86 1010.8
20260505175832 80 65 3.5 4.3 0.00 0.02 0.02 86 1010.8
20260505175328 80 63 4.3 5.2 0.00 0.02 0.02 85 1010.8
20260505174825 80 64 5.2 6.1 0.00 0.02 0.02 85 1010.8
20260505174322 80 74 6.1 7.8 0.00 0.02 0.02 85 1010.8
20260505173818 80 70 5.2 6.1 0.00 0.02 0.02 85 1011.1
20260505173315 80 75 3.5 4.3 0.00 0.02 0.02 85 1011.1
20260505172812 80 79 4.3 6.1 0.00 0.02 0.02 86 1011.1
20260505172310 80 81 6.1 7.8 0.00 0.02 0.02 86 1011.1
20260505171804 80 78 5.2 6.1 0.00 0.02 0.02 87 1011.1
20260505171301 80 78 5.2 6.1 0.00 0.02 0.02 87 1011.1
20260505170757 81 85 4.3 6.1 0.00 0.02 0.02 87 1011.1
20260505170255 81 75 5.2 7.8 0.00 0.02 0.02 87 1011.1
20260505165749 81 72 5.2 6.1 0.00 0.02 0.02 87 1011.1
20260505165246 81 77 6.1 7.8 0.00 0.02 0.02 87 1011.5
20260505164741 81 76 6.1 7.8 0.00 0.02 0.02 87 1011.5
20260505164239 81 75 3.5 5.2 0.00 0.02 0.02 87 1011.5
20260505163737 81 69 4.3 6.1 0.00 0.02 0.02 86 1011.5
20260505163235 81 76 5.2 7.8 0.00 0.02 0.02 86 1011.5
20260505162732 81 52 4.3 5.2 0.00 0.00 0.00 85 1011.5
20260505162229 81 75 5.2 6.1 0.00 0.00 0.00 85 1011.5
20260505161726 81 76 4.3 5.2 0.00 0.00 0.00 85 1011.5
20260505161224 81 72 4.3 5.2 0.00 0.00 0.00 84 1011.5
20260505160721 82 63 5.2 6.1 0.00 0.00 0.00 84 1011.8
20260505160218 82 74 3.5 5.2 0.00 0.00 0.00 84 1011.8
20260505153157 82 85 6.1 7.8 0.00 0.00 0.00 83 1011.8
20260505152654 82 98 4.3 6.1 0.00 0.00 0.00 82 1011.8
20260505152150 82 95 5.2 7.0 0.00 0.00 0.00 82 1011.8
20260505151645 82 87 4.3 6.1 0.00 0.00 0.00 82 1011.8
20260505151143 82 88 5.2 7.0 0.00 0.00 0.00 82 1011.8
20260505150639 82 92 5.2 7.0 0.00 0.00 0.00 82 1011.8
20260505150136 82 78 4.3 6.1 0.00 0.00 0.00 81 1012.2
20260505140605 82 87 8.7 13.0 0.00 0.00 0.00 84 1012.5
20260505125018 82 81 7.0 9.6 0.00 0.03 0.03 84 1012.5
20260505124515 82 101 8.7 11.3 0.00 0.03 0.03 84 1012.5
20260505124011 82 84 7.8 11.3 0.00 0.03 0.03 85 1012.5
20260505123508 82 98 7.0 8.7 0.00 0.03 0.03 85 1012.5
20260505123004 82 99 4.3 6.1 0.00 0.03 0.03 85 1012.5
20260505122501 82 93 7.0 8.7 0.00 0.03 0.03 86 1012.5
20260505121958 82 88 7.0 9.6 0.00 0.03 0.03 87 1012.5
20260505121454 81 79 6.1 7.0 0.00 0.03 0.03 87 1012.5
20260505120950 81 81 4.3 7.8 0.00 0.03 0.03 87 1012.5
20260505120447 81 71 5.2 6.1 0.00 0.03 0.03 87 1012.5
20260505115946 81 79 6.1 7.0 0.00 0.03 0.03 86 1012.2
20260505115443 81 61 5.2 8.7 0.00 0.03 0.03 86 1012.5
20260505114941 82 72 6.1 7.8 0.00 0.03 0.03 85 1012.5
20260505114437 82 83 6.1 7.8 0.00 0.03 0.03 85 1012.2
20260505113934 82 88 5.2 7.0 0.00 0.03 0.03 85 1012.2
20260505113430 82 99 4.3 5.2 0.00 0.03 0.03 85 1012.2
20260505112926 82 98 5.2 6.1 0.00 0.03 0.03 85 1012.2
20260505112424 82 109 4.3 6.1 0.00 0.03 0.03 84 1012.2
20260505111920 82 93 7.0 9.6 0.00 0.03 0.03 84 1012.2
20260505111415 82 91 7.0 9.6 0.00 0.03 0.03 84 1012.2
20260505110912 82 90 5.2 7.0 0.00 0.03 0.03 85 1012.2
20260505110409 82 83 6.1 8.7 0.00 0.03 0.03 85 1012.2
20260505101839 81 105 5.2 6.1 0.00 0.03 0.03 84 1011.5
20260505101334 81 94 7.0 8.7 0.00 0.03 0.03 85 1011.5
20260505100830 81 94 4.3 7.0 0.00 0.03 0.03 86 1011.5
20260505100327 81 97 4.3 5.2 0.00 0.03 0.03 85 1011.5
20260505095822 81 99 3.5 5.2 0.00 0.03 0.03 85 1011.1
20260505095320 82 92 4.3 5.2 0.00 0.03 0.03 85 1011.5
20260505094816 82 116 4.3 5.2 0.00 0.03 0.03 84 1011.1
20260505094313 82 99 4.3 5.2 0.00 0.03 0.03 84 1011.1
20260505093808 82 91 4.3 6.1 0.00 0.03 0.03 84 1011.1
20260505093307 82 88 5.2 7.0 0.00 0.03 0.03 83 1011.1
20260505092803 82 99 5.2 6.1 0.00 0.03 0.03 83 1011.1
20260505092304 82 81 6.1 7.8 0.00 0.03 0.03 83 1011.1
20260505091758 82 75 6.1 7.8 0.00 0.03 0.03 82 1011.1
20260505091256 82 98 5.2 7.0 0.00 0.03 0.03 82 1011.1
20260505090754 82 102 5.2 6.1 0.00 0.03 0.03 82 1010.8
20260505090252 82 91 7.0 7.8 0.00 0.03 0.03 82 1010.8
20260505085749 83 97 5.2 7.8 0.00 0.03 0.03 81 1010.5
20260505085247 83 90 7.0 8.7 0.00 0.03 0.03 78 1010.5
20260505084744 83 82 7.0 8.7 0.00 0.03 0.03 79 1010.5
20260505084243 83 95 5.2 6.1 0.00 0.03 0.03 79 1010.5
20260505083739 83 101 5.2 7.0 0.00 0.03 0.03 81 1010.5
20260505083236 82 90 6.1 7.8 0.00 0.03 0.03 81 1010.5
20260505082732 83 91 6.1 7.0 0.00 0.03 0.03 82 1010.1
20260505082230 83 65 10.4 13.9 0.00 0.03 0.03 81 1010.1
20260505081725 83 101 8.7 11.3 0.00 0.03 0.03 81 1010.1
20260505081223 84 95 10.4 13.9 0.00 0.03 0.03 80 1010.1
20260505080720 84 109 8.7 12.2 0.00 0.03 0.03 78 1010.1
20260505080215 84 108 7.8 11.3 0.00 0.03 0.03 78 1010.1
20260505075711 84 102 7.0 8.7 0.00 0.03 0.03 78 1010.1
20260505075209 84 110 5.2 9.6 0.00 0.03 0.03 78 1009.8
20260505074706 84 99 6.1 7.8 0.00 0.03 0.03 77 1009.8
20260505074202 85 90 7.8 11.3 0.00 0.03 0.03 77 1009.8
20260505073700 85 86 6.1 8.7 0.00 0.03 0.03 76 1009.8
20260505073158 85 102 2.6 6.1 0.00 0.03 0.03 77 1009.8
20260505072653 85 95 6.1 7.8 0.00 0.03 0.03 77 1009.8
20260505072150 85 108 7.0 9.6 0.00 0.03 0.03 77 1010.1
20260505071646 85 102 4.3 7.0 0.00 0.03 0.03 77 1009.8
20260505071144 85 114 5.2 7.0 0.00 0.03 0.03 76 1009.8
20260505070641 86 93 7.0 9.6 0.00 0.03 0.03 74 1009.8
20260505070137 86 134 4.3 5.2 0.00 0.03 0.03 73 1009.8
20260505065633 86 119 7.0 11.3 0.00 0.03 0.03 72 1009.8
20260505065130 86 100 8.7 11.3 0.00 0.03 0.03 73 1009.8
20260505064627 86 90 8.7 11.3 0.00 0.03 0.03 73 1009.8
20260505064125 86 100 6.1 9.6 0.00 0.03 0.03 72 1009.8
20260505063622 86 104 7.8 10.4 0.00 0.03 0.03 72 1009.8
20260505063118 86 105 6.1 10.4 0.00 0.03 0.03 73 1009.8
20260505062614 86 93 6.1 7.8 0.00 0.03 0.03 74 1009.8
20260505062112 85 116 4.3 7.8 0.00 0.03 0.03 75 1009.8
20260505061609 86 108 7.8 10.4 0.00 0.03 0.03 75 1009.8
20260505061107 86 100 6.1 8.7 0.00 0.03 0.03 75 1009.8
20260505060604 86 121 7.8 10.4 0.00 0.03 0.03 75 1009.8